General Aviation Weather

Text Reports

Enter one or more of the following location identifiers separated by a space:

Zip Code, Four-Character ICAO or Three-Character IATA airport codes.

METAR - Aviation Routine Weather Report
KFUL - Fullerton, California
Updated at 9:53 AM GMT on August 03, 2015 (2:53 AM PDT):
METAR KFUL 030953Z 13003KT 10SM OVC016 21/18 A2987 RMK AO2 SLP113 T02110183 $
TAF - Terminal Area Forecast
KFUL - Fullerton, California
Updated at 9:53 AM GMT on August 03, 2015 (2:53 AM PDT):
No TAF is currently available for this location.
Decoded:
No decoded TAF is available.
PIREP - Pilot Weather Report
KFUL - Fullerton, California
Updated at 9:53 AM GMT on August 03, 2015 (2:53 AM PDT):
No PIREP is currently available for this location.
AIRMET - Airmens Meteorological Information
KFUL - Fullerton, California
Updated at 9:53 AM GMT on August 03, 2015 (2:53 AM PDT):
No AIRMET is currently available for this location.
SIGMET - Significant Meteorological Information
KFUL - Fullerton, California
Updated at 9:53 AM GMT on August 03, 2015 (2:53 AM PDT):
No SIGMET is currently available for this location.
NOTAM - Notice to Airmen
KFUL - Fullerton, California
Updated at 9:53 AM GMT on August 03, 2015 (2:53 AM PDT):
No NOTAM is currently available for this location.
Forecast Area
KFUL - Fullerton, California
Updated at 9:53 AM GMT on August 03, 2015 (2:53 AM PDT):
No NOTAM is currently available for this location.
Aviation Weather Maps